COSMOS 2251 DEB

Satellite information

Favourite Embed

Satellite Type and Status

DEBRISIN ORBIT

Key statistics

Satellite COSMOS 2251 DEB at a glance.

Uptime

11869

Days in orbit

Revolutions

≈ 14.5

Per day

Orbit

LEO

Low Earth Orbit

Inclination

74.0

Latest

Satellite identification and parameters

Extended collection of information and parameters for COSMOS 2251 DEB.

Object identification

Identified? True

Debris? True

Object name: COSMOS 2251 DEB

International designator: 1993-036CE

Object number (NORAD): 33837

Object ID (CCSDS): 33837

Country: COMMONWEALTH OF INDEPENDENT STATES (CIS)

Current information (Y/N): Y

RCS size: SMALL

Orbital parameters

Period: 99.262 minutes

Inclination: 74.0132 deg

SMA: 7101.487 km

Apoapsis: 748.829 km

Periapsis: 697.875 km

RAAN: 53.9724 deg

Eccentricy: 0.00358753

Argument of periapsis: 275.5491 deg

Mean anomaly: 84.1578 deg

Mean motion: 14.50704096 rev/day

Mean motion (dot): 0.00001471 rev/day2

B* drag term: 0.00037833486 1/REarth

Two-line elements (TLE)

Creation date: Dec. 14, 2025, 3:07 a.m.

Reference frame: TEME

Reference center: EARTH

Epoch: Dec. 13, 2025, 2:28 p.m. UTC

TLE line 0: 0 COSMOS 2251 DEB

TLE line 1: 1 33837U 93036CE 25347.60336392 .00001471 00000-0 37833-3 0 9998

TLE line 2: 2 33837 74.0132 53.9724 0035875 275.5491 84.1578 14.50704096888085

Live tracking on map

Real-time ground track for satellite COSMOS 2251 DEB.

In-orbit conjunctions

A list of the most updated potential collisions computed for object COSMOS 2251 DEB.

Target Orbit TCA Probability of collision Miss distance Type
FENGYUN 1C DEB SSO 2025-09-18 01:47:52 0.0001140049 79.0 (m) DEBRIS
FENGYUN 1C DEB SSO 2024-06-25 06:55:49 0.0002623321 325.0 (m) DEBRIS

Associated space launch

Military communications satellite. Destroyed in a collision with Iridium 33.

COSMOS 2251 DEB was lifted into orbit during the mission ‘Kosmos-3M | Strela-2M 51’, on board a Kosmos-3M space rocket.

The launch took place on June 16, 1993, 4:17 a.m. from 132/1 (132L).

For more information about the launch, click the button.

Launch to space Kosmos-3M | Strela-2M 51
Kosmos-3M | Strela-2M 51

Agency: N/A

Status: Launch Successful

Launch date: June 16, 1993, 4:17 a.m. UTC

Rocket: Kosmos-3M

Launch pad: 132/1 (132L)

Location: Plesetsk Cosmodrome, Russian Federation

...

Latest news about this satellite

There are no fresh news available about this satellite. Check back as we update our databases every day.


Newsletter sign-up

Weekly statistics, charts and insights to help you stay on top of the space industry.